Lincoln, NE

11:29 PM CDT on May 20, 2018 (GMT -0500)
Lincoln Municipal

Weather History for KLNK - March, 2013

Change the Weather History Date:

Tuesday, March 12, 2013

  Actual Average Record
Temperature  
Mean Temperature 24 °F 39 °F  
Max Temperature 35 °F 51 °F 81 °F (1916)
Min Temperature 13 °F 27 °F -15 °F (1998)
Degree Days  
Heating Degree Days 41 26  
Month to date heating degree days 399 343  
Since 1 July heating degree days 5027 5046  
Cooling Degree Days 0 0  
Month to date cooling degree days 0 0  
Year to date cooling degree days 0 0  
Moisture  
Dew Point 19 °F    
Average Humidity 74    
Maximum Humidity 92    
Minimum Humidity 56    
Precipitation  
Precipitation 0.00 in 0.06 in 1.11 in (1986)
Month to date precipitation 0.94 0.57  
Year to date precipitation 2.21 1.98  
Snow  
Snow 0.00 in 0.20 in - ()
Month to date snowfall 5.7 2.1  
Since 1 July snowfall 22.5 21.8  
Snow Depth 5.00 in    
Sea Level Pressure  
Sea Level Pressure 30.25 in    
Wind  
Wind Speed 11 mph (NW)    
Max Wind Speed 25 mph    
Max Gust Speed 33 mph    
Visibility 10 miles    
Events      
T = Trace of Precipitation, MM = Missing Value Source: NWS Daily Summary

Daily Weather History Graph

Daily Weather History Graph

Search for Another Location

Airport or City:

Astronomy

Mar. 12, 2013 Rise Set
Actual Time 7:43 AM CDT 7:30 PM CDT
Civil Twilight 7:15 AM CDT 7:58 PM CDT
Nautical Twilight 6:44 AM CDT 8:30 PM CDT
Astronomical Twilight 6:11 AM CDT 9:02 PM CDT
Moon 7:49 AM CDT (3/12) 8:48 PM CDT (3/12)
Length of Visible Light 12h 42m
Length of Day
11h 47m
New Moon, 1% of the Moon is Illuminated
Mar 12
New Moon
Mar 19
First Quarter
Mar 27
Full
Apr 2
Last Quarter
Apr 10
New

Hourly Weather History & Observations

Time (CDT) Temp. Windchill Dew Point Humidity Pressure Visibility Wind Dir Wind Speed Gust Speed Precip Events Conditions
12:54 AM 23.0 °F 18.4 °F 19.9 °F 88% 30.10 in 9.0 mi WNW 3.5 mph - N/A   Clear
1:54 AM 17.1 °F 10.0 °F 16.0 °F 96% 30.12 in 8.0 mi North 4.6 mph - N/A   Clear
2:54 AM 18.0 °F 12.7 °F 15.1 °F 88% 30.14 in 7.0 mi West 3.5 mph - N/A   Clear
3:54 AM 17.1 °F 11.7 °F 12.9 °F 84% 30.13 in 9.0 mi WNW 3.5 mph - N/A   Clear
4:54 AM 19.0 °F - 16.0 °F 88% 30.12 in 10.0 mi Calm Calm - N/A   Clear
5:54 AM 24.1 °F - 18.0 °F 77% 30.14 in 10.0 mi Calm Calm - N/A   Clear
6:54 AM 30.0 °F 20.5 °F 21.0 °F 69% 30.16 in 10.0 mi WNW 11.5 mph - N/A   Partly Cloudy
7:54 AM 30.9 °F 20.2 °F 19.0 °F 61% 30.17 in 10.0 mi NW 15.0 mph 24.2 mph N/A   Clear
8:54 AM 30.9 °F 21.7 °F 19.9 °F 64% 30.21 in 10.0 mi NW 11.5 mph - N/A   Clear
9:54 AM 32.0 °F 20.8 °F 19.9 °F 61% 30.23 in 10.0 mi NW 17.3 mph 26.5 mph N/A   Clear
10:54 AM 33.1 °F 22.6 °F 21.9 °F 64% 30.24 in 10.0 mi NW 16.1 mph 23.0 mph N/A   Clear
11:54 AM 33.1 °F 20.6 °F 19.9 °F 59% 30.27 in 10.0 mi NW 23.0 mph 32.2 mph N/A   Clear
12:54 PM 34.0 °F 21.3 °F 21.0 °F 59% 30.29 in 10.0 mi NW 25.3 mph 29.9 mph N/A   Scattered Clouds
1:54 PM 33.1 °F 21.5 °F 21.0 °F 61% 30.31 in 10.0 mi NW 19.6 mph 27.6 mph N/A   Overcast
2:54 PM 34.0 °F 22.4 °F 21.0 °F 59% 30.31 in 10.0 mi NW 20.7 mph 29.9 mph N/A   Overcast
3:54 PM 35.1 °F 25.2 °F 21.0 °F 57% 30.31 in 10.0 mi NW 16.1 mph 20.7 mph N/A   Overcast
4:54 PM 34.0 °F 23.8 °F 21.9 °F 61% 30.31 in 10.0 mi NNW 16.1 mph - N/A   Overcast
5:54 PM 34.0 °F 23.4 °F 21.0 °F 59% 30.32 in 10.0 mi NNW 17.3 mph - N/A   Mostly Cloudy
6:54 PM 33.1 °F 23.9 °F 21.0 °F 61% 30.32 in 10.0 mi NNW 12.7 mph - N/A   Clear
7:54 PM 30.0 °F 20.5 °F 19.9 °F 66% 30.34 in 10.0 mi NNW 11.5 mph - N/A   Clear
8:54 PM 25.0 °F 18.1 °F 19.0 °F 78% 30.37 in 10.0 mi North 5.8 mph - N/A   Clear
9:54 PM 27.0 °F - 19.0 °F 72% 30.38 in 10.0 mi Calm Calm - N/A   Clear
10:54 PM 24.1 °F 19.7 °F 19.0 °F 81% 30.38 in 10.0 mi West 3.5 mph - N/A   Clear
11:54 PM 21.9 °F 17.2 °F 17.1 °F 82% 30.40 in 10.0 mi West 3.5 mph - N/A   Clear